Location: Aurora Center
(43.5271°N, 98.5894°W)
Time: 10:00:03
(UTC-05:00)

ACS3 Solar Sail - Pass Details

Date: 18 June 2024
Orbit: 992 x 1023 km, 97.4° (Epoch: 12 July)

Event Time Altitude Azimuth Distance (km) Brightness Sun altitude
Exits shadow 22:43:12 15° 150° (SSE) 2,386 6.2 -12.2°
Maximum altitude 22:48:18 63° 73° (ENE) 1,107 5.0 -12.8°
Drops below altitude 10° 22:54:26 10° 354° (N) 2,768 8.1 -13.5°
Sets 22:56:56 0° 352° (N) 3,720 9.0 -13.8°
